Flag for Germany Weather past 2 weeks in Saarbrücken, Saarland, Germany

Now
50 °F

Sunny.


Feels Like: 46 °F
Forecast: 31 / 56 °F
Wind: 12 mph from West

Location: Saarbruecken / Ensheim

Current Time: Apr 28, 2015 at 9:12:34 PM

Latest Report: Apr 28, 2015 at 8:20 PM


Visibility: 10 mi

Pressure: 30.12 "Hg

Humidity: 50%

Dew point: 32 °F

Location of SaarbrückenLocation

Historic Weather in Saarbrücken — Graph

°F

Saarbrücken temperature yesterday

Maximum temperature yesterday: 57 °F (at 12:20 AM)
Minimum temperature yesterday: 43 °F (at 11:20 PM)
Average temperature yesterday: 51 °F

Past Weeks' High & Low Weather Summary

 TemperatureHumidityPressure
High75 °F (Apr 15, 2:50 PM)100% (Apr 26, 8:50 AM)30.45 "Hg (Apr 26, 8:50 AM)
Low36 °F (Apr 19, 4:50 AM)19% (Apr 15, 4:20 PM)29.59 "Hg (Apr 27, 2:50 AM)
Average54 °F57%30.05 "Hg
* Reported Apr 13 7:20 PM — Apr 28 7:50 PM, Saarbrücken, Weather by CustomWeather, © 2015

Note: Actual official high and low records may vary slightly from our data, if they occured in-between our weather recording intervals... More about our weather records

Advertising

Saarbrücken weather history for previous 24 hours

 ConditionsComfort  
Time TempWeatherWind HumidityBarometerVisibility
7:50 PM
Tue, Apr 28
50 °FSunny.12 mph50%30.12 "Hg10 mi
7:20 PM52 °FScattered clouds.12 mph50%30.09 "HgN/A
6:50 PM52 °FPassing clouds.14 mph50%30.09 "HgN/A
6:20 PM54 °FCool.15 mph47%30.09 "HgN/A
5:50 PM54 °FPassing clouds.13 mph47%30.09 "HgN/A
5:20 PM54 °FSunny.17 mph51%30.07 "Hg10 mi
4:50 PM54 °FSunny.15 mph47%30.07 "Hg10 mi
4:20 PM54 °FPassing clouds.18 mph44%30.07 "HgN/A
3:50 PM54 °FPassing clouds.16 mph41%30.07 "HgN/A
3:20 PM55 °FSunny.14 mph41%30.07 "Hg10 mi
2:50 PM54 °FSunny.16 mph41%30.07 "Hg10 mi
2:20 PM52 °FPassing clouds.14 mph50%30.04 "HgN/A
1:50 PM55 °FScattered clouds.16 mph38%30.04 "HgN/A
1:20 PM54 °FScattered clouds.12 mph47%30.04 "HgN/A
12:50 PM52 °FScattered clouds.12 mph54%30.04 "HgN/A
12:20 PM50 °FScattered clouds.14 mph54%30.04 "HgN/A
11:50 AM52 °FScattered clouds.12 mph62%30.01 "HgN/A
11:20 AM50 °FScattered clouds.13 mph62%30.01 "HgN/A
10:50 AM48 °FScattered clouds.13 mph71%30.01 "HgN/A
10:20 AM48 °FScattered clouds.10 mph76%29.98 "HgN/A
9:50 AM46 °FScattered clouds.10 mph82%29.98 "HgN/A
9:20 AM45 °FBroken clouds.9 mph87%29.98 "HgN/A
8:50 AM45 °FSunny.7 mph87%29.95 "Hg10 mi
8:20 AM45 °FSunny.8 mph87%29.95 "Hg10 mi
7:50 AM43 °FPartly sunny.7 mph87%29.92 "HgN/A
7:20 AM43 °FPartly sunny.8 mph87%29.89 "HgN/A
6:50 AM43 °FPassing clouds.9 mph87%29.89 "HgN/A
6:20 AM43 °FPassing clouds.5 mph87%29.86 "HgN/A
5:20 AM43 °FPartly cloudy.9 mph87%29.83 "HgN/A
4:50 AM43 °FPassing clouds.9 mph87%29.83 "HgN/A
4:20 AM43 °FPartly cloudy.8 mph87%29.83 "HgN/A
3:50 AM43 °FPassing clouds.7 mph87%29.80 "HgN/A
3:20 AM43 °FPassing clouds.6 mph87%29.80 "HgN/A
2:50 AM43 °FPassing clouds.8 mph93%29.80 "HgN/A
2:20 AM43 °FPassing clouds.7 mph93%29.77 "HgN/A
1:50 AM43 °FOvercast.6 mph93%29.77 "HgN/A
1:20 AM43 °FOvercast.7 mph93%29.77 "HgN/A
12:50 AM43 °FOvercast.6 mph93%29.77 "HgN/A
12:20 AM43 °FPassing clouds.8 mph93%29.74 "HgN/A
11:50 PM
Mon, Apr 27
43 °FPassing clouds.8 mph93%29.74 "HgN/A
11:20 PM43 °FPassing clouds.13 mph93%29.71 "HgN/A
10:50 PM45 °FPassing clouds.12 mph87%29.74 "HgN/A
10:20 PM45 °FLight rain. Partly cloudy.10 mph93%29.71 "HgN/A
9:50 PM45 °FPartly cloudy.12 mph93%29.71 "HgN/A
9:20 PM45 °FLight rain. Broken clouds.9 mph93%29.71 "HgN/A
Weather by CustomWeather, © 2015

See weather overviewHow to use our weather pages